Showing default

LEMUR 2 LLOYD, 60577

Orbit data source: Space-Track

LEMUR 2 LLOYD, 60577 is an American payload satellite in SSO that was launched on Fri, 16 Aug 2024 UTC via an FALCON 9 launch vehicle from the Air Force Western Test Range (AFWTR). Payload-class satellites include a variety of spacecraft equipped with specific instruments for various scientific and technological missions. These include communications satellites like Starlink; space stations such as the ISS; scientific satellites like the Hubble; Earth observation satellites from companies like Planet Labs, Umbra, and HawkEye 360; GPS; miniature CubeSats for education and research; and military/defense satellites.

Loading next visibility...
Identifier
60577, 2024-149DP
Orbit
SSO
Country
Flag of USUS
Related business
Manufacturer
Spire/Glasgow
Mission
Operational Commercial Com/MetRO
Bus & Motor
CUBESAT 3U, Unknown motor
Mass
7.6 kg wet, 7.6 kg dry
Launch date (UTC)
2024-08-16 (1 year ago)
Launch vehicle
FALCON 9
Launch site
Air Force Western Test Range (AFWTR)
Object type
Payload
Rocket body
Debris
Shape & HBR
Box + 2 Pan, 0.5 m
Radar Cross Section
0.063 m², Small (<0.1 m²)

Expand to show TLE details & history
Last TLE update: 4 hours ago

TLE from 4 hours ago
0 LEMUR 2 LLOYD
1 60577U 24149DP  26035.18859560  .00012178  00000-0  83138-3 0  9998
2 60577  97.6838 116.4875 0003440 231.0292 129.0629 15.06334011 80359
Epoch: 2026-02-04T04:31Z
TLE epoch observation values (Epoch: 2026-02-04T04:31:34.659Z)
Latitude
-0.00002°
Longitude
-85.76567°
Altitude
551.98 km
Speed
7.585 km/s
True Right ascension
07h 45m 57s
True Declination
0° 00' 00"
Sunlit
Object was in full shadow at epoch
Visualization orbit readout
Latitude
Unknown
Longitude
Unknown
Altitude
Unknown
Speed
Unknown
Apparent Right ascension
Unknown
Apparent Declination
Unknown
Sunlit
N/A
Visualization observer readout
Local Sidereal Time
10:40:07
Azimuth
Unknown
Elevation
Unknown
Doppler factor
Unknown
Orbital elements
Apogee altitude
546.791 km
Perigee altitude
542.029 km
Semi-major axis
6,922.547 km
Eccentricity
0.00034
Inclination
97.6838°
RAAN
116.4875°
Arg. of periapsis
231.0292°
True anomaly
129.0935°
Mean anomaly
129.0629°
Eccentric anomaly
129.0782°
Mean motion
3.76829 °/min
Orbital period
95.53 mins
BSTAR
0.00083138
Loading maneuver chart data...
Computing Atmospheric mass density...
Loading historical data...
Loading historical data...
Loading historical data...
Loading historical data...
Loading historical data...
Loading historical data...
Loading historical data...

Documentation

Showing up to 5 results
|